[[{"header":{"parameterUnit":"m.s-1","parameterCategory":1,"la1":30.2991,"la2":30.254,"lo1":-89.0895,"lo2":-89.0444,"dy":0.0017,"dx":0.0017,"nx":28,"ny":28,"refTime":"2024-04-20T03:00:00:Z","depth":0,"parameterNumber":2,"parameterNumberName":"U-component_of_WINDS"},"data":[0,0,0,0,0,0,0,0,0,0,0,0,0,0,0,0,0,0,0,0,0,0,0,0,0,0,0,0,0,0,0,0,0,0,0,0,0,0,0,0,0,0,0,0,0,0,0,0,0,0,0,0,0,0,0,0,0,0,2.0482,2.0483,0,2.0521,2.0522,2.0522,2.0452,2.0449,2.0447,2.0444,2.0491,2.0495,2.0498,0,0,0,0,0,0,0,0,0,0,0,0,0,2.0352,2.0355,2.0482,2.0483,2.0483,2.0521,2.0522,2.0522,2.0452,2.0449,2.0446,2.0443,2.049,2.0494,2.0498,0,0,0,0,0,0,0,0,0,0,0,0,0,2.0402,2.0355,2.0482,2.0452,2.045,2.0521,2.0522,2.0523,2.0453,2.0449,2.0445,2.0442,2.0489,2.0494,2.0499,2.0603,0,0,2.0515,2.0517,0,0,0,0,0,0,0,0,2.0399,2.0407,2.0456,2.0455,2.0452,2.0478,2.0493,2.055,2.0453,2.0452,2.0444,2.044,2.049,2.0495,2.051,2.0605,2.0607,2.0515,2.0519,2.0521,2.0522,0,0,0,0,0,0,0,2.0396,2.0404,2.0498,2.0457,2.0455,2.0439,2.0442,2.0503,2.0491,2.0452,2.0447,2.0452,2.0488,2.0506,2.0511,2.0608,2.0515,2.052,2.0523,2.0525,2.0789,2.0793,0,0,0,0,0,0,2.0395,2.0402,2.0497,2.0499,2.0416,2.0444,2.0448,2.0473,2.049,2.0489,2.0455,2.0448,2.0498,2.0505,2.0512,2.0635,2.0521,2.0526,2.0529,2.0785,2.079,2.0794,0,0,0,0,0,0,2.0392,2.0404,2.0495,2.0449,2.0459,2.045,2.048,2.0476,2.0493,2.0492,2.049,2.0474,2.0496,2.0505,2.058,2.0635,2.0528,2.0533,2.0781,2.0787,2.0792,2.0881,0,0,0,0,0,0,2.0389,2.0404,2.0442,2.045,2.0462,2.0561,2.0483,2.0479,2.0501,2.0493,2.051,2.0509,2.0494,2.0573,2.0585,2.0641,2.0537,2.0776,2.0783,2.079,2.0873,2.0889,2.0903,0,0,0,0,0,2.0385,2.0467,2.0444,2.0456,2.0509,2.0564,2.0571,2.0549,2.0506,2.0545,2.0544,2.0509,2.0627,2.0581,2.0595,2.0652,2.0772,2.0781,2.079,2.0866,2.0886,2.0902,0,0,0,0,0,0,2.0467,2.0467,2.0442,2.0529,2.0547,2.0552,2.0601,2.0571,2.0603,2.0595,2.0568,2.0573,2.0654,2.066,2.0609,2.0753,2.0693,2.0704,2.0746,2.0765,2.0779,2.0777,2.0541,0,0,0,0,0,2.0495,2.0538,2.0536,2.0613,2.0623,2.0611,2.0634,2.0615,2.0633,2.0641,2.0646,2.0667,2.0709,2.0737,2.0775,2.0873,2.0876,2.0919,2.0934,2.0946,2.0958,2.101,2.1029,2.0823,2.0823,2.0823,0,0,2.0555,2.056,2.0589,2.063,2.0642,2.0688,2.0618,2.067,2.0704,2.065,2.0721,2.0725,2.0747,2.0833,2.0872,2.0842,2.1015,2.0958,2.0967,2.0972,2.1021,2.104,2.1058,2.0829,2.0828,2.0827,0,0,2.0686,2.0694,2.0758,2.0771,2.0788,2.0779,2.0794,2.0804,2.0804,2.0874,2.0834,2.0875,2.0948,2.0964,2.0983,2.1119,2.1088,2.1132,2.121,2.1262,2.1278,2.1292,2.1341,2.1359,2.1143,2.1143,2.1143,0,2.0758,2.0824,2.0796,2.0851,2.087,2.082,2.0886,2.0901,2.0931,2.0947,2.0911,2.1,2.1011,2.1101,2.1134,2.115,2.1168,2.1131,2.1277,2.1291,2.1304,2.1351,2.1369,2.1148,2.1148,2.1147,2.1147,0,2.0912,2.0958,2.1009,2.1036,2.1062,2.1122,2.1105,2.1134,2.1113,2.1108,2.1181,2.1192,2.1231,2.1251,2.1232,2.1338,2.1319,2.1281,2.1219,2.133,2.1373,2.1391,2.1156,2.1154,2.1153,2.1151,0,0,2.1098,2.1108,2.1127,2.1138,2.1153,2.119,2.1248,2.1284,2.131,2.1333,2.1382,2.1443,2.1407,2.1428,2.1411,2.1455,2.1563,2.1412,2.1412,2.144,2.1681,2.171,2.1731,2.1541,2.1545,2.1547,2.1679,0,2.1229,2.1326,2.1303,2.1401,2.1444,2.1396,2.1447,2.1463,2.1459,2.1497,2.1494,2.1538,2.1487,2.1499,2.1541,2.1541,2.1611,2.1531,2.1589,2.1591,2.1585,2.1754,2.1784,2.1909,2.1696,2.1699,2.1701,0,2.1394,2.142,2.1522,2.1528,2.1546,2.1592,2.1623,2.1658,2.1675,2.167,2.1692,2.1665,2.1724,2.1661,2.1743,2.1689,2.1711,2.1714,2.1718,2.1724,2.1653,2.1764,2.1948,2.1967,2.1727,2.1725,2.1723,0,2.152,2.1581,2.1649,2.1661,2.167,2.1704,2.171,2.1723,2.1746,2.1773,2.1788,2.1823,2.1843,2.1871,2.1855,2.1811,2.194,2.1876,2.1939,2.1939,2.1969,2.1968,2.2159,2.1982,2.1982,2.1982,2.1981,0,2.1669,2.1733,2.1706,2.1748,2.1819,2.1791,2.1862,2.1863,2.1875,2.1917,2.1879,2.1921,2.1896,2.1936,2.1924,2.1994,2.2003,2.2001,2.1998,2.2005,2.2006,2.202,2.2011,2.1987,2.1985,2.1984,2.1984,0,2.1823,2.1806,2.1878,2.188,2.1882,2.1934,2.1937,2.1977,2.197,2.2025,2.2036,2.2026,2.2071,2.2057,2.2106,2.2098,2.2186,2.2171,2.218,2.2177,2.224,2.2235,2.2449,2.2476,2.2281,2.2283,2.2284,0,2.1919,2.1967,2.1973,2.1998,2.2006,2.2047,2.2069,2.2044,2.2069,2.2091,2.2129,2.217,2.2201,2.2275,2.2273,2.2311,2.2296,2.2369,2.2302,2.2308,2.2298,2.2296,2.2301,2.2383,2.2385,2.2387,2.2388,0,2.2092,2.2081,2.2114,2.2144,2.2171,2.2194,2.2214,2.2237,2.2213,2.2244,2.2287,2.2312,2.236,2.2402,2.2435,2.2443,2.2413,2.2409,2.2426,2.2434,2.2437,2.2437,2.2217,2.2405,2.2403,2.2402,2.2401,2.24,2.222,2.226,2.227,2.2308,2.232,2.2339,2.2376,2.2373,2.2408,2.2444,2.2428,2.2479,2.2494,2.2535,2.2548,2.2588,2.2561,2.2585,2.2591,2.2597,2.2606,2.243,2.2594,2.2594,2.2593,2.2593,2.2593,0,2.2391,2.2395,2.243,2.2457,2.2487,2.2453,2.2473,2.2501,2.2545,2.2561,2.2592,2.2643,2.2682,2.2683,2.272,2.2752,2.2739,2.2763,2.2761,2.2763,2.2628,2.261,2.2773,2.2773,2.2773,2.2773,2.2773,2.2773,2.2483,2.2549,2.254,2.2611,2.2615,2.2663,2.2677,2.2695,2.2707,2.2765,2.2796,2.2795,2.2806,2.2843,2.2878,2.2877,2.2893,2.2923,2.2917,2.2791,2.2773,2.2756,2.2739,2.2926,2.2926,2.3049,2.305,2.3051]},{"header":{"parameterUnit":"m.s-1","parameterCategory":1,"la1":30.2991,"la2":30.254,"lo1":-89.0895,"lo2":-89.0444,"dy":0.0017,"dx":0.0017,"nx":28,"ny":28,"refTime":"2024-04-20T03:00:00:Z","depth":0,"parameterNumber":3,"parameterNumberName":"V-component_of_WINDS"},"data":[0,0,0,0,0,0,0,0,0,0,0,0,0,0,0,0,0,0,0,0,0,0,0,0,0,0,0,0,0,0,0,0,0,0,0,0,0,0,0,0,0,0,0,0,0,0,0,0,0,0,0,0,0,0,0,0,0,0,2.6154,2.6156,0,2.6385,2.6388,2.639,2.6457,2.6456,2.6454,2.6453,2.6688,2.6695,2.6703,0,0,0,0,0,0,0,0,0,0,0,0,0,2.5768,2.5775,2.6153,2.6156,2.6159,2.6384,2.6388,2.6391,2.6457,2.6456,2.6454,2.6453,2.6686,2.6694,2.6703,0,0,0,0,0,0,0,0,0,0,0,0,0,2.5961,2.5777,2.6153,2.6219,2.6228,2.6384,2.6388,2.6392,2.6457,2.6456,2.6454,2.6452,2.6683,2.6694,2.6705,2.681,0,0,2.6739,2.6743,0,0,0,0,0,0,0,0,2.595,2.5975,2.6207,2.6215,2.6225,2.639,2.6338,2.6532,2.6458,2.637,2.6453,2.6451,2.659,2.6609,2.6656,2.6821,2.6832,2.674,2.6746,2.6751,2.6754,0,0,0,0,0,0,0,2.5937,2.5966,2.6245,2.621,2.6221,2.6238,2.6263,2.6375,2.6488,2.6378,2.6383,2.641,2.6595,2.6646,2.6662,2.6835,2.6739,2.6749,2.6756,2.676,2.71,2.7102,0,0,0,0,0,0,2.5912,2.5954,2.6238,2.6252,2.608,2.6246,2.6274,2.6339,2.6487,2.6508,2.6411,2.6412,2.6627,2.6649,2.6671,2.6806,2.6751,2.6761,2.6768,2.7098,2.7101,2.7103,0,0,0,0,0,0,2.5904,2.5937,2.6228,2.6105,2.6143,2.6255,2.6327,2.6344,2.6395,2.6512,2.6532,2.6442,2.6627,2.6655,2.6776,2.6815,2.6766,2.6776,2.7095,2.7099,2.7102,2.7076,0,0,0,0,0,0,2.5892,2.5933,2.5975,2.6105,2.6149,2.633,2.6329,2.635,2.6414,2.6418,2.6547,2.6566,2.6628,2.6759,2.6787,2.6829,2.6785,2.7092,2.7097,2.7101,2.7074,2.7078,2.7082,0,0,0,0,0,2.5878,2.5958,2.5977,2.601,2.6204,2.6332,2.6357,2.6427,2.6417,2.646,2.6535,2.6562,2.6806,2.6771,2.6803,2.6849,2.709,2.7095,2.71,2.7072,2.7077,2.7082,0,0,0,0,0,0,2.5828,2.5976,2.5999,2.6122,2.6214,2.6343,2.6399,2.643,2.6526,2.6525,2.6606,2.6635,2.675,2.6811,2.6769,2.696,2.6949,2.696,2.6916,2.6922,2.6926,2.6909,2.6794,0,0,0,0,0,2.5832,2.5924,2.6047,2.6145,2.619,2.6286,2.6344,2.639,2.6488,2.6527,2.6611,2.6705,2.6803,2.6866,2.6962,2.7083,2.7112,2.713,2.7134,2.7137,2.7147,2.7216,2.7226,2.712,2.712,2.712,0,0,2.584,2.5932,2.5985,2.6137,2.6214,2.6307,2.6318,2.6416,2.6487,2.6542,2.6662,2.6726,2.6836,2.6958,2.7015,2.7013,2.7183,2.7144,2.7145,2.7154,2.7223,2.7233,2.7242,2.7124,2.7123,2.7123,0,0,2.5902,2.5981,2.6071,2.6148,2.6264,2.6328,2.6349,2.6474,2.6519,2.6641,2.6685,2.6769,2.6935,2.7013,2.7073,2.7166,2.7195,2.7195,2.7216,2.7283,2.7292,2.7299,2.7334,2.7345,2.7204,2.7204,2.7204,0,2.5898,2.6041,2.6113,2.621,2.6277,2.6332,2.6424,2.6495,2.6636,2.668,2.6675,2.6887,2.6964,2.7105,2.7128,2.7175,2.7202,2.7181,2.7284,2.7293,2.7301,2.7335,2.7348,2.7203,2.7203,2.7203,2.7203,0,2.603,2.6128,2.6187,2.6323,2.6396,2.649,2.6577,2.6642,2.6681,2.6745,2.6869,2.6964,2.7081,2.7118,2.7157,2.7265,2.726,2.7268,2.7259,2.731,2.7343,2.7356,2.7202,2.7203,2.7203,2.7203,0,0,2.6067,2.6243,2.6264,2.6327,2.6459,2.6537,2.6633,2.6749,2.6804,2.6899,2.6982,2.7122,2.7132,2.7201,2.7249,2.7308,2.7376,2.731,2.7314,2.732,2.7502,2.7496,2.7509,2.7396,2.7398,2.7401,2.7494,0,2.6148,2.6323,2.6392,2.6535,2.6627,2.6681,2.6766,2.6856,2.6918,2.7006,2.7074,2.7173,2.7178,2.722,2.728,2.7355,2.7414,2.7349,2.7474,2.7478,2.7446,2.7527,2.752,2.7603,2.7507,2.7509,2.7511,0,2.6265,2.6363,2.6515,2.6637,2.6679,2.6753,2.6866,2.6948,2.7052,2.7093,2.7171,2.7216,2.7319,2.7301,2.7445,2.7399,2.7455,2.7499,2.7504,2.7519,2.7498,2.7545,2.7631,2.7644,2.7531,2.753,2.7528,0,2.6279,2.6448,2.6562,2.6614,2.6759,2.681,2.6873,2.6975,2.704,2.7138,2.7182,2.7289,2.7349,2.7431,2.7504,2.7484,2.7641,2.763,2.7679,2.7677,2.771,2.7707,2.7807,2.7743,2.7743,2.7743,2.7743,0,2.6362,2.6453,2.657,2.664,2.6744,2.6822,2.6923,2.6989,2.708,2.7163,2.7216,2.7293,2.7384,2.7473,2.753,2.7641,2.7667,2.7704,2.7718,2.77,2.7695,2.7738,2.7734,2.7746,2.7746,2.7745,2.7744,0,2.6396,2.6477,2.6605,2.6732,2.6766,2.6837,2.6946,2.7016,2.7081,2.7187,2.7216,2.7318,2.7425,2.7506,2.7645,2.7683,2.7802,2.7816,2.7767,2.7775,2.782,2.7815,2.7952,2.7974,2.7894,2.7894,2.7895,0,2.6444,2.6516,2.6651,2.6711,2.6774,2.687,2.6938,2.7017,2.7085,2.7209,2.7264,2.7376,2.7469,2.7638,2.7724,2.7831,2.7849,2.789,2.7866,2.7845,2.7852,2.7847,2.7855,2.7893,2.7894,2.7894,2.7894,0,2.6521,2.6558,2.6654,2.6765,2.6844,2.6934,2.7026,2.7072,2.7168,2.7242,2.7353,2.7425,2.7568,2.7678,2.7794,2.7858,2.7893,2.7901,2.7919,2.7901,2.7871,2.7889,2.7778,2.7898,2.7898,2.7897,2.7897,2.7897,2.6565,2.6631,2.6738,2.6843,2.692,2.7004,2.7077,2.7151,2.7246,2.7369,2.741,2.7525,2.7627,2.7787,2.7852,2.7943,2.7943,2.7967,2.7974,2.7979,2.7979,2.7855,2.7964,2.7964,2.7964,2.7964,2.7964,0,2.6646,2.6717,2.6813,2.694,2.7022,2.7048,2.7151,2.7218,2.7319,2.7412,2.7504,2.7632,2.7739,2.7834,2.7946,2.8,2.8019,2.8027,2.8024,2.8039,2.7971,2.7946,2.801,2.801,2.801,2.801,2.801,2.801,2.6698,2.6813,2.6863,2.7016,2.7087,2.7201,2.7258,2.7336,2.7411,2.7552,2.7642,2.7703,2.7798,2.7917,2.8016,2.8041,2.808,2.8085,2.8114,2.8049,2.8043,2.8038,2.8015,2.8092,2.8092,2.8174,2.8175,2.8175]}]]